• Em Portugal
  • Lista de países
  • Para 7 dias
  • Temperatura da água
  • Mapas de satélite
  • Mapa do tempo
  • Widgets de tempo
  • user-avatar
    Iniciar Sessão

    Previsão horária em Pekaninko

    Hoje, 19 Agosto, Domingo

    Tempo Temperatura Precipitação Vento Pressão Humidade
    00:00 +17°C° 0 mm 3 m/s 763 mmHg 68%
    01:00 +17°C° 0 mm 3 m/s 763 mmHg 68%
    02:00 +17°C° 0 mm 3 m/s 763 mmHg 69%
    03:00 +17°C° 0 mm 3 m/s 763 mmHg 70%
    04:00 +17°C° 0 mm 3 m/s 763 mmHg 72%
    05:00 +18°C° 0 mm 3 m/s 763 mmHg 71%
    06:00 +18°C° 0 mm 3 m/s 763 mmHg 69%
    07:00 +19°C° 0 mm 3 m/s 763 mmHg 68%
    08:00 +21°C° 0 mm 3 m/s 763 mmHg 65%
    09:00 +22°C° 0 mm 4 m/s 763 mmHg 61%
    10:00 +25°C° 0 mm 4 m/s 763 mmHg 57%
    11:00 +26°C° 0 mm 4 m/s 763 mmHg 56%
    12:00 +26°C° 0 mm 4 m/s 763 mmHg 54%
    13:00 +27°C° 0 mm 4 m/s 763 mmHg 52%
    14:00 +27°C° 0 mm 3 m/s 762 mmHg 52%
    15:00 +27°C° 0 mm 3 m/s 762 mmHg 52%
    16:00 +27°C° 0 mm 2 m/s 762 mmHg 53%
    17:00 +26°C° 0 mm 2 m/s 762 mmHg 58%
    18:00 +24°C° 0 mm 1 m/s 761 mmHg 63%
    19:00 +23°C° 0 mm 1 m/s 761 mmHg 69%
    20:00 +23°C° 0 mm 1 m/s 761 mmHg 69%
    21:00 +21°C° 0 mm 2 m/s 761 mmHg 70%
    22:00 +20°C° 0 mm 3 m/s 761 mmHg 71%
    23:00 +20°C° 0 mm 3 m/s 760 mmHg 69%

    Amanhã, 20 Agosto, Segunda-feira

    Tempo Temperatura Precipitação Vento Pressão Humidade
    00:00 +20°C° 0 mm 3 m/s 760 mmHg 68%
    01:00 +20°C° 0 mm 4 m/s 760 mmHg 67%
    02:00 +19°C° 0 mm 4 m/s 759 mmHg 66%
    03:00 +19°C° 0 mm 4 m/s 759 mmHg 65%
    04:00 +19°C° 0 mm 4 m/s 759 mmHg 64%
    05:00 +20°C° 0 mm 4 m/s 758 mmHg 65%
    06:00 +20°C° 0 mm 4 m/s 758 mmHg 65%
    07:00 +21°C° 0 mm 5 m/s 758 mmHg 65%
    08:00 +23°C° 0 mm 5 m/s 758 mmHg 62%
    09:00 +24°C° 0 mm 6 m/s 758 mmHg 60%
    10:00 +27°C° 0 mm 6 m/s 758 mmHg 57%
    11:00 +26°C° 0,1 mm 6 m/s 758 mmHg 60%
    12:00 +24°C° 0,1 mm 7 m/s 757 mmHg 64%
    13:00 +24°C° 0,1 mm 7 m/s 757 mmHg 67%
    14:00 +23°C° 0,1 mm 7 m/s 757 mmHg 69%
    15:00 +23°C° 0,1 mm 7 m/s 757 mmHg 70%
    16:00 +23°C° 0,1 mm 8 m/s 757 mmHg 72%
    17:00 +21°C° 0 mm 7 m/s 758 mmHg 71%
    18:00 +20°C° 0 mm 7 m/s 758 mmHg 70%
    19:00 +19°C° 0 mm 6 m/s 758 mmHg 69%
    20:00 +19°C° 0 mm 6 m/s 759 mmHg 69%
    21:00 +17°C° 0 mm 6 m/s 759 mmHg 69%
    22:00 +16°C° 0 mm 5 m/s 760 mmHg 69%
    23:00 +16°C° 0 mm 5 m/s 760 mmHg 72%

    Depois de amanhã, 21 Agosto, Terça-feira

    Tempo Temperatura Precipitação Vento Pressão Humidade
    00:00 +16°C° 0 mm 5 m/s 760 mmHg 74%
    01:00 +15°C° 0 mm 5 m/s 760 mmHg 76%
    02:00 +15°C° 0 mm 5 m/s 761 mmHg 78%
    03:00 +15°C° 0 mm 4 m/s 761 mmHg 80%
    04:00 +15°C° 0 mm 4 m/s 761 mmHg 82%
    05:00 +15°C° 0 mm 4 m/s 762 mmHg 79%
    06:00 +17°C° 0 mm 4 m/s 762 mmHg 76%
    07:00 +17°C° 0 mm 5 m/s 763 mmHg 73%
    08:00 +19°C° 0 mm 5 m/s 763 mmHg 69%
    09:00 +20°C° 0 mm 4 m/s 763 mmHg 65%
    10:00 +20°C° 0 mm 4 m/s 764 mmHg 62%
    11:00 +21°C° 0 mm 4 m/s 764 mmHg 59%
    12:00 +22°C° 0 mm 4 m/s 764 mmHg 56%
    13:00 +22°C° 0 mm 4 m/s 764 mmHg 54%
    14:00 +22°C° 0 mm 4 m/s 764 mmHg 55%
    15:00 +22°C° 0 mm 4 m/s 764 mmHg 55%
    16:00 +21°C° 0 mm 4 m/s 764 mmHg 56%
    17:00 +20°C° 0 mm 3 m/s 764 mmHg 62%
    18:00 +18°C° 0 mm 2 m/s 764 mmHg 69%
    19:00 +17°C° 0 mm 2 m/s 764 mmHg 75%
    20:00 +16°C° 0 mm 1 m/s 764 mmHg 78%
    21:00 +15°C° 0 mm 1 m/s 765 mmHg 81%
    22:00 +14°C° 0 mm 1 m/s 765 mmHg 84%
    23:00 +14°C° 0 mm 1 m/s 765 mmHg 85%

    22 Agosto, Quarta-feira

    Tempo Temperatura Precipitação Vento Pressão Humidade
    00:00 +14°C° 0 mm 1 m/s 765 mmHg 85%
    01:00 +14°C° 0 mm 2 m/s 765 mmHg 86%
    02:00 +13°C° 0 mm 2 m/s 765 mmHg 86%
    03:00 +13°C° 0 mm 2 m/s 765 mmHg 86%
    04:00 +13°C° 0 mm 2 m/s 765 mmHg 86%
    05:00 +14°C° 0 mm 2 m/s 765 mmHg 82%
    06:00 +16°C° 0 mm 2 m/s 765 mmHg 77%
    07:00 +17°C° 0 mm 2 m/s 765 mmHg 73%
    08:00 +19°C° 0 mm 2 m/s 764 mmHg 65%
    09:00 +21°C° 0 mm 2 m/s 764 mmHg 57%
    10:00 +24°C° 0 mm 2 m/s 764 mmHg 50%
    11:00 +25°C° 0 mm 2 m/s 764 mmHg 47%
    12:00 +26°C° 0 mm 2 m/s 763 mmHg 43%
    13:00 +27°C° 0 mm 2 m/s 763 mmHg 40%
    14:00 +27°C° 0 mm 2 m/s 762 mmHg 40%
    15:00 +28°C° 0 mm 2 m/s 762 mmHg 40%
    16:00 +28°C° 0 mm 2 m/s 762 mmHg 39%
    17:00 +26°C° 0 mm 2 m/s 761 mmHg 45%
    18:00 +24°C° 0 mm 1 m/s 761 mmHg 51%
    19:00 +22°C° 0 mm 1 m/s 761 mmHg 57%
    20:00 +20°C° 0 mm 2 m/s 761 mmHg 58%
    21:00 +20°C° 0 mm 2 m/s 761 mmHg 59%
    22:00 +19°C° 0 mm 2 m/s 761 mmHg 60%
    23:00 +19°C° 0 mm 3 m/s 761 mmHg 61%

    23 Agosto, Quinta-feira

    Tempo Temperatura Precipitação Vento Pressão Humidade
    00:00 +18°C° 0 mm 3 m/s 761 mmHg 61%
    01:00 +18°C° 0 mm 3 m/s 761 mmHg 62%
    02:00 +18°C° 0 mm 3 m/s 760 mmHg 62%
    03:00 +17°C° 0 mm 2 m/s 760 mmHg 63%
    04:00 +17°C° 0 mm 2 m/s 760 mmHg 64%
    05:00 +18°C° 0 mm 2 m/s 760 mmHg 63%
    06:00 +19°C° 0 mm 2 m/s 760 mmHg 61%
    07:00 +20°C° 0 mm 2 m/s 760 mmHg 60%
    08:00 +23°C° 0 mm 2 m/s 760 mmHg 54%
    09:00 +26°C° 0 mm 1 m/s 760 mmHg 48%
    10:00 +28°C° 0 mm 1 m/s 759 mmHg 42%
    11:00 +29°C° 0 mm 1 m/s 759 mmHg 40%
    12:00 +30°C° 0 mm 1 m/s 759 mmHg 37%
    13:00 +30°C° 0 mm 1 m/s 758 mmHg 35%
    14:00 +30°C° 0 mm 2 m/s 758 mmHg 36%
    15:00 +30°C° 0 mm 2 m/s 757 mmHg 36%
    16:00 +30°C° 0 mm 2 m/s 757 mmHg 37%
    17:00 +28°C° 0 mm 3 m/s 757 mmHg 43%
    18:00 +26°C° 0 mm 3 m/s 756 mmHg 48%
    19:00 +25°C° 0 mm 3 m/s 756 mmHg 54%
    20:00 +24°C° 0 mm 3 m/s 756 mmHg 55%
    21:00 +22°C° 0 mm 3 m/s 755 mmHg 56%
    22:00 +22°C° 0 mm 4 m/s 755 mmHg 57%
    23:00 +22°C° 0 mm 4 m/s 755 mmHg 57%

    24 Agosto, Sexta-feira

    Tempo Temperatura Precipitação Vento Pressão Humidade
    00:00 +21°C° 0 mm 4 m/s 754 mmHg 58%
    01:00 +21°C° 0 mm 5 m/s 754 mmHg 58%
    02:00 +21°C° 0 mm 5 m/s 754 mmHg 58%
    03:00 +22°C° 0 mm 5 m/s 753 mmHg 58%
    04:00 +22°C° 0 mm 5 m/s 753 mmHg 58%
    05:00 +21°C° 0,7 mm 4 m/s 753 mmHg 64%
    06:00 +21°C° 0,7 mm 4 m/s 753 mmHg 70%
    07:00 +21°C° 0,7 mm 3 m/s 753 mmHg 77%
    08:00 +22°C° 0,4 mm 3 m/s 753 mmHg 76%
    09:00 +22°C° 0,4 mm 4 m/s 753 mmHg 75%
    10:00 +23°C° 0,4 mm 4 m/s 753 mmHg 74%
    11:00 +22°C° 0,3 mm 4 m/s 753 mmHg 77%
    12:00 +21°C° 0,3 mm 4 m/s 753 mmHg 80%
    13:00 +21°C° 0,3 mm 4 m/s 753 mmHg 83%
    14:00 +20°C° 0,1 mm 4 m/s 753 mmHg 81%
    15:00 +20°C° 0,1 mm 3 m/s 754 mmHg 79%
    16:00 +20°C° 0,1 mm 3 m/s 754 mmHg 76%
    17:00 +19°C° 0,2 mm 2 m/s 754 mmHg 79%
    18:00 +18°C° 0,2 mm 2 m/s 754 mmHg 81%
    19:00 +19°C° 0,2 mm 1 m/s 754 mmHg 83%
    20:00 +18°C° 0,1 mm 1 m/s 754 mmHg 84%
    21:00 +17°C° 0,1 mm 2 m/s 754 mmHg 85%
    22:00 +17°C° 0,1 mm 2 m/s 754 mmHg 85%
    23:00 +16°C° 0,1 mm 2 m/s 754 mmHg 86%
    Mostrar mais